Regional Weather Roundup
Issued by NWS

Home | Current Version | Previous Version | Text Only | Print | Product List | Glossary On
Versions: 1 2 3 4 5 6 7 8 9 10 11 12 13 14 15 16 17 18 19 20 21 22 23 24 25 26 27 28 29 30 31 32 33 34 35 36 37 38 39 40 41 42 43 44 45 46 47 48 49 50
000
ASUS44 KBMX 310510
RWRAL

ALABAMA REGIONAL WEATHER ROUNDUP
NATIONAL WEATHER SERVICE BIRMINGHAM AL
1100 PM CST FRI JAN 30 2015

NOTE: "FAIR" INDICATES FEW OR NO CLOUDS BELOW 12,000 FEET
WITH NO SIGNIFICANT WEATHER AND/OR OBSTRUCTIONS TO VISIBILITY.

THE REMARK "TC" DENOTES TEMPERATURE IN DEGREES CELSIUS.

ALZ001>011-014-016>018-020-310600-
NORTH ALABAMA

CITY           SKY/WX    TMP DP  RH WIND       PRES   REMARKS
MUSCLE SHOALS  CLEAR     36  21  54 NE3       30.43S
HUNTSVILLE     CLEAR     36  19  50 NE5       30.41S WCI  32
DECATUR        CLEAR     30  20  66 NE6       30.42S WCI  24
HALEYVILLE       N/A     26  23  88 CALM      30.41F
GADSDEN        CLEAR    N/A N/A N/A CALM      30.39F
$$

ALZ012-013-022-023-030>036-040>044-310600-
WEST CENTRAL ALABAMA

CITY           SKY/WX    TMP DP  RH WIND       PRES   REMARKS
TUSCALOOSA     PTCLDY    36  26  67 CALM      30.40F
$$

ALZ015-024>027-033>036-040>044-310600-
CENTRAL ALABAMA

CITY           SKY/WX    TMP DP  RH WIND       PRES   REMARKS
BIRMINGHAM     CLEAR     31  23  72 CALM      30.40F
MONTGOMERY     MOCLDY    41  24  51 N5        30.38S
SHELBY CO ARPT PTCLDY    40  22  48 N3        30.38S
MAXWELL AFB    MOCLDY    40  26  57 N6        30.37S
GREENVILLE     FAIR      43  23  45 NE8       30.33F
$$

ALZ019-021-028-029-037-038-045>048-310600-
EAST CENTRAL ALABAMA

CITY           SKY/WX    TMP DP  RH WIND       PRES   REMARKS
ANNISTON       CLEAR     30  23  75 SE3       30.38F
ALEXANDER CITY PTCLDY    39  21  48 N3        30.35F
AUBURN         PTCLDY    37  18  44 N8        30.36S WCI  31
$$

ALZ051>064-310600-
SOUTHWEST ALABAMA

CITY           SKY/WX    TMP DP  RH WIND       PRES   REMARKS
MOBILE         PTCLDY    42  31  64 N5        30.35F
BROOKLEY FIELD PTCLDY    43  33  68 N6        30.37S
EVERGREEN      MOCLDY    41  28  60 NW3       30.36S
$$

ALZ049-050-065>069-310600-
SOUTHEAST ALABAMA

CITY           SKY/WX    TMP DP  RH WIND       PRES   REMARKS
DOTHAN         MOCLDY    42  26  53 N7        30.35F
OZARK          MOCLDY    44  24  45 N10       30.32F
TROY           MOCLDY    42  25  50 N7        30.35S
EUFAULA        FAIR      42  25  50 CALM      30.33F
$$



USA.gov is the U.S. government's official web portal to all federal, state and local government web resources and services.